Weather History for PASO - January, 2014

Change the Weather History Date:

Sunday, January 19, 2014

  Actual Average (PAHO) Record (PAHO)
Temperature  
Mean Temperature 36 °F -  
Max Temperature 43 °F 29 °F 47 °F (1937)
Min Temperature 28 °F 18 °F -12 °F (1952)
Degree Days  
Heating Degree Days 30    
Moisture  
Dew Point 32 °F    
Average Humidity 94    
Maximum Humidity 100    
Minimum Humidity 82    
Precipitation  
Precipitation 0.32 in - - ()
Sea Level Pressure  
Sea Level Pressure 29.67 in    
Wind  
Wind Speed 4 mph (NE)    
Max Wind Speed 16 mph    
Max Gust Speed 23 mph    
Visibility 8 miles    
Events Rain , Snow    
Averages and records for this station are not official NWS values.
T = Trace of Precipitation, MM = Missing Value Source: NWS Daily Summary

Daily Weather History Graph

Daily Weather History Graph

Search for Another Location

Airport or City:

Trip Planner

Search our weather history database for the weather conditions in past years. The results will help you decide how hot, cold, wet, or windy it might be!

Date:

Astronomy

Jan. 19, 2014 Rise Set
Actual Time 9:43 AM AKST 4:52 PM AKST
Civil Twilight 8:53 AM AKST 5:42 PM AKST
Nautical Twilight 8:01 AM AKST 6:34 PM AKST
Astronomical Twilight 7:12 AM AKST 7:23 PM AKST
Moon 9:49 PM AKST (1/19) 10:15 AM AKST (1/19)
Length of Visible Light 8h 49m
Length of Day
7h 09m
Waning Gibbous, 88% of the Moon is Illuminated
Jan 19
Waning Gibbous
Jan 23
Last Quarter
Jan 30
New
Feb 6
First Quarter
Feb 14
Full

Hourly Weather History & Observations

Time (AKST) Temp. Windchill Dew Point Humidity Pressure Visibility Wind Dir Wind Speed Gust Speed Precip Events Conditions
12:53 AM 28.0 °F - 26.1 °F 92% 29.80 in 10.0 mi Calm Calm - N/A   Clear
1:53 AM 30.0 °F - 26.1 °F 85% 29.80 in 10.0 mi Calm Calm - N/A   Clear
2:53 AM 28.9 °F - 27.0 °F 92% 29.80 in 10.0 mi Calm Calm - N/A   Clear
3:53 AM 28.9 °F - 27.0 °F 92% 29.79 in 10.0 mi Calm Calm - N/A   Clear
4:53 AM 28.9 °F - 27.0 °F 92% 29.78 in 10.0 mi Calm Calm - N/A   Clear
5:53 AM 28.0 °F - 27.0 °F 96% 29.75 in 10.0 mi Calm Calm - N/A   Scattered Clouds
6:53 AM 28.9 °F - 28.9 °F 100% 29.75 in 10.0 mi Calm Calm - N/A   Overcast
7:53 AM 30.0 °F - 28.9 °F 96% 29.73 in 10.0 mi Calm Calm - N/A   Overcast
8:53 AM 34.0 °F 28.0 °F 28.9 °F 82% 29.70 in 10.0 mi NE 6.9 mph - N/A   Overcast
9:53 AM 32.0 °F - 30.9 °F 96% 29.71 in 9.0 mi Calm Calm - 0.00 in   Overcast
10:00 AM 32.0 °F - 30.2 °F 93% 29.71 in 9.0 mi Calm Calm - 0.00 in Rain Light Freezing Rain
10:18 AM 35.6 °F 27.5 °F 32.0 °F 87% 29.69 in 7.0 mi North 11.5 mph - 0.01 in Rain Light Rain
10:50 AM 33.8 °F 25.3 °F 32.0 °F 93% 29.69 in 3.0 mi NNE 11.5 mph - 0.05 in Rain Rain
10:53 AM 34.0 °F 26.0 °F 32.0 °F 92% 29.69 in 3.0 mi NNE 10.4 mph - 0.05 in Rain Rain
11:11 AM 33.8 °F 23.9 °F 32.0 °F 93% 29.68 in 2.5 mi NNE 15.0 mph 21.9 mph 0.02 in Snow Light Snow
11:31 AM 33.8 °F 25.3 °F 32.0 °F 93% 29.68 in 1.8 mi NNE 11.5 mph - 0.04 in Snow Light Snow
11:46 AM 33.8 °F 25.3 °F 33.8 °F 100% 29.68 in 2.5 mi NNE 11.5 mph - 0.06 in Snow Light Snow
11:53 AM 34.0 °F 24.6 °F 34.0 °F 100% 29.68 in 2.5 mi NNE 13.8 mph - 0.07 in Snow Light Snow
12:35 PM 33.8 °F 23.9 °F - N/A% 29.65 in 3.0 mi North 15.0 mph - 0.05 in Snow Light Snow
12:53 PM 35.1 °F 25.2 °F - N/A% 29.64 in 7.0 mi NNE 16.1 mph - 0.07 in Rain Light Rain
1:00 PM 35.6 °F 27.1 °F - N/A% 29.63 in 7.0 mi NNE 12.7 mph - 0.00 in Rain Light Rain
1:53 PM 34.0 °F - - N/A% 29.59 in 10.0 mi Calm Calm - 0.00 in   Overcast
2:53 PM 35.1 °F 32.2 °F - N/A% 29.59 in 10.0 mi South 3.5 mph - N/A   Overcast
3:53 PM 36.0 °F - - N/A% 29.57 in 10.0 mi Calm Calm - 0.00 in   Overcast
4:53 PM 39.0 °F 32.8 °F 39.0 °F 100% 29.55 in 10.0 mi SSE 9.2 mph - N/A   Mostly Cloudy
5:53 PM 43.0 °F 36.0 °F 39.9 °F 89% 29.54 in 10.0 mi SE 13.8 mph 23.0 mph 0.00 in Rain Light Rain
6:13 PM 42.8 °F 38.0 °F 39.2 °F 87% 29.55 in 9.0 mi South 8.1 mph 23.0 mph 0.01 in Rain Light Rain
6:53 PM 39.9 °F 35.1 °F 36.0 °F 86% 29.58 in 7.0 mi Variable 6.9 mph - 0.05 in Rain Light Rain
7:53 PM 36.0 °F - 36.0 °F 100% 29.61 in 9.0 mi Calm Calm - 0.07 in Rain Light Rain
8:34 PM 35.6 °F - 35.6 °F 100% 29.61 in 10.0 mi Calm Calm - 0.01 in Rain Light Rain
8:53 PM 35.1 °F - 35.1 °F 100% 29.61 in 10.0 mi Calm Calm - 0.01 in   Overcast
9:53 PM 34.0 °F - 34.0 °F 100% 29.62 in 10.0 mi Calm Calm - N/A   Overcast
10:53 PM 34.0 °F - 34.0 °F 100% 29.63 in 9.0 mi Calm Calm - N/A   Overcast
11:53 PM 36.0 °F - 36.0 °F 100% 29.63 in 7.0 mi Calm Calm - 0.00 in Rain Light Rain